Year,Month,Day,Hour,Minute,Value (Times are PST for temperature in C)
2013,04,25,00,00,6.70
2013,04,25,00,01,6.70
2013,04,25,00,02,6.70
2013,04,25,00,03,6.70
2013,04,25,00,04,6.70
2013,04,25,00,05,6.80
2013,04,25,00,06,6.80
2013,04,25,00,07,6.80
2013,04,25,00,08,6.80
2013,04,25,00,09,6.80
2013,04,25,00,10,6.80
2013,04,25,00,11,6.80
2013,04,25,00,12,6.80
2013,04,25,00,13,6.80
2013,04,25,00,14,6.80
2013,04,25,00,15,6.80
2013,04,25,00,16,6.80
2013,04,25,00,17,6.90
2013,04,25,00,18,6.90
2013,04,25,00,19,6.90
2013,04,25,00,20,7.00
2013,04,25,00,21,7.00
2013,04,25,00,22,7.10
2013,04,25,00,23,7.20
2013,04,25,00,24,7.20
2013,04,25,00,25,7.20
2013,04,25,00,26,7.30
2013,04,25,00,27,7.30
2013,04,25,00,28,7.40
2013,04,25,00,29,7.50
2013,04,25,00,30,7.50
2013,04,25,00,31,7.60
2013,04,25,00,32,7.70
2013,04,25,00,33,7.70
2013,04,25,00,34,7.80
2013,04,25,00,35,7.90
2013,04,25,00,36,8.00
2013,04,25,00,37,8.10
2013,04,25,00,38,8.20
2013,04,25,00,39,8.20
2013,04,25,00,40,8.20
2013,04,25,00,41,8.30
2013,04,25,00,42,8.30
2013,04,25,00,43,8.30
2013,04,25,00,44,8.40
2013,04,25,00,45,8.40
2013,04,25,00,46,8.50
2013,04,25,00,47,8.50
2013,04,25,00,48,8.60
2013,04,25,00,49,8.60
2013,04,25,00,50,8.70
2013,04,25,00,51,8.70
2013,04,25,00,52,8.80
2013,04,25,00,53,8.80
2013,04,25,00,54,8.90
2013,04,25,00,55,8.90
2013,04,25,00,56,9.00
2013,04,25,00,57,9.00
2013,04,25,00,58,9.10
2013,04,25,00,59,9.10
2013,04,25,01,00,9.10
2013,04,25,01,01,9.20
2013,04,25,01,02,9.20
2013,04,25,01,03,9.20
2013,04,25,01,04,9.20
2013,04,25,01,05,9.30
2013,04,25,01,06,9.30
2013,04,25,01,07,9.30
2013,04,25,01,08,9.40
2013,04,25,01,09,9.40
2013,04,25,01,10,9.40
2013,04,25,01,11,9.50
2013,04,25,01,12,9.50
2013,04,25,01,13,9.50
2013,04,25,01,14,9.60
2013,04,25,01,15,9.60
2013,04,25,01,16,9.60
2013,04,25,01,17,9.60
2013,04,25,01,18,9.50
2013,04,25,01,19,9.50
2013,04,25,01,20,9.50
2013,04,25,01,21,9.40
2013,04,25,01,22,9.40
2013,04,25,01,23,9.40
2013,04,25,01,24,9.40
2013,04,25,01,25,9.40
2013,04,25,01,26,9.40
2013,04,25,01,27,9.40
2013,04,25,01,28,9.40
2013,04,25,01,29,9.40
2013,04,25,01,30,9.40
2013,04,25,01,31,9.40
2013,04,25,01,32,9.40
2013,04,25,01,33,9.40
2013,04,25,01,34,9.50
2013,04,25,01,35,9.50
2013,04,25,01,36,9.60
2013,04,25,01,37,9.60
2013,04,25,01,38,9.60
2013,04,25,01,39,9.60
2013,04,25,01,40,9.70
2013,04,25,01,41,9.70
2013,04,25,01,42,9.70
2013,04,25,01,43,9.70
2013,04,25,01,44,9.80
2013,04,25,01,45,9.80
2013,04,25,01,46,9.80
2013,04,25,01,47,9.80
2013,04,25,01,48,9.90
2013,04,25,01,49,9.90
2013,04,25,01,50,10.00
2013,04,25,01,51,10.00
2013,04,25,01,52,10.00
2013,04,25,01,53,10.10
2013,04,25,01,54,10.10
2013,04,25,01,55,10.10
2013,04,25,01,56,10.10
2013,04,25,01,57,10.10
2013,04,25,01,58,10.20
2013,04,25,01,59,10.20
2013,04,25,02,00,10.20
2013,04,25,02,01,10.20
2013,04,25,02,02,10.20
2013,04,25,02,03,10.30
2013,04,25,02,04,10.30
2013,04,25,02,05,10.30
2013,04,25,02,06,10.30
2013,04,25,02,07,10.30
2013,04,25,02,08,10.30
2013,04,25,02,09,10.30
2013,04,25,02,10,10.30
2013,04,25,02,11,10.30
2013,04,25,02,12,10.30
2013,04,25,02,13,10.30
2013,04,25,02,14,10.30
2013,04,25,02,15,10.30
2013,04,25,02,16,10.30
2013,04,25,02,17,10.20
2013,04,25,02,18,10.20
2013,04,25,02,19,10.20
2013,04,25,02,20,10.10
2013,04,25,02,21,10.10
2013,04,25,02,22,10.10
2013,04,25,02,23,10.10
2013,04,25,02,24,10.00
2013,04,25,02,25,10.00
2013,04,25,02,26,9.90
2013,04,25,02,27,9.90
2013,04,25,02,28,9.90
2013,04,25,02,29,9.80
2013,04,25,02,30,9.80
2013,04,25,02,31,9.80
2013,04,25,02,32,9.80
2013,04,25,02,33,9.80
2013,04,25,02,34,9.70
2013,04,25,02,35,9.70
2013,04,25,02,36,9.70
2013,04,25,02,37,9.70
2013,04,25,02,38,9.70
2013,04,25,02,39,9.70
2013,04,25,02,40,9.60
2013,04,25,02,41,9.60
2013,04,25,02,42,9.60
2013,04,25,02,43,9.60
2013,04,25,02,44,9.60
2013,04,25,02,45,9.60
2013,04,25,02,46,9.60
2013,04,25,02,47,9.60
2013,04,25,02,48,9.60
2013,04,25,02,49,9.60
2013,04,25,02,50,9.50
2013,04,25,02,51,9.50
2013,04,25,02,52,9.50
2013,04,25,02,53,9.50
2013,04,25,02,54,9.40
2013,04,25,02,55,9.40
2013,04,25,02,56,9.40
2013,04,25,02,57,9.40
2013,04,25,02,58,9.40
2013,04,25,02,59,9.40
2013,04,25,03,00,9.40
2013,04,25,03,01,9.40
2013,04,25,03,02,9.40
2013,04,25,03,06,9.50
2013,04,25,03,07,9.50
2013,04,25,03,08,9.50
2013,04,25,03,09,9.50
2013,04,25,03,10,9.50
2013,04,25,03,11,9.50
2013,04,25,03,12,9.50
2013,04,25,03,13,9.50
2013,04,25,03,14,9.50
2013,04,25,03,15,9.40
2013,04,25,03,16,9.40
2013,04,25,03,17,9.40
2013,04,25,03,18,9.40
2013,04,25,03,19,9.40
2013,04,25,03,20,9.40
2013,04,25,03,21,9.30
2013,04,25,03,22,9.30
2013,04,25,03,23,9.30
2013,04,25,03,24,9.30
2013,04,25,03,25,9.30
2013,04,25,03,26,9.30
2013,04,25,03,27,9.20
2013,04,25,03,28,9.20
2013,04,25,03,29,9.20
2013,04,25,03,30,9.20
2013,04,25,03,31,9.20
2013,04,25,03,32,9.20
2013,04,25,03,33,9.10
2013,04,25,03,34,9.10
2013,04,25,03,35,9.10
2013,04,25,03,36,9.10
2013,04,25,03,37,9.00
2013,04,25,03,38,9.00
2013,04,25,03,39,9.00
2013,04,25,03,40,9.00
2013,04,25,03,41,9.00
2013,04,25,03,42,9.00
2013,04,25,03,43,8.90
2013,04,25,03,44,8.90
2013,04,25,03,45,8.90
2013,04,25,03,46,8.90
2013,04,25,03,47,8.90
2013,04,25,03,48,8.90
2013,04,25,03,49,8.90
2013,04,25,03,50,8.90
2013,04,25,03,51,9.00
2013,04,25,03,52,8.90
2013,04,25,03,53,8.90
2013,04,25,03,54,8.90
2013,04,25,03,55,8.90
2013,04,25,03,56,8.90
2013,04,25,03,57,8.90
2013,04,25,03,58,8.90
2013,04,25,03,59,8.80
2013,04,25,04,00,8.80
2013,04,25,04,01,8.70
2013,04,25,04,02,8.70
2013,04,25,04,03,8.60
2013,04,25,04,04,8.60
2013,04,25,04,05,8.50
2013,04,25,04,06,8.40
2013,04,25,04,07,8.40
2013,04,25,04,08,8.40
2013,04,25,04,09,8.40
2013,04,25,04,10,8.40
2013,04,25,04,11,8.40
2013,04,25,04,12,8.40
2013,04,25,04,13,8.40
2013,04,25,04,14,8.40
2013,04,25,04,15,8.40
2013,04,25,04,16,8.40
2013,04,25,04,17,8.50
2013,04,25,04,18,8.50
2013,04,25,04,19,8.50
2013,04,25,04,20,8.60
2013,04,25,04,21,8.60
2013,04,25,04,22,8.60
2013,04,25,04,23,8.70
2013,04,25,04,24,8.70
2013,04,25,04,25,8.70
2013,04,25,04,26,8.70
2013,04,25,04,27,8.70
2013,04,25,04,28,8.70
2013,04,25,04,29,8.70
2013,04,25,04,30,8.70
2013,04,25,04,31,8.70
2013,04,25,04,32,8.70
2013,04,25,04,33,8.70
2013,04,25,04,34,8.70
2013,04,25,04,35,8.70
2013,04,25,04,36,8.70
2013,04,25,04,37,8.60
2013,04,25,04,38,8.60
2013,04,25,04,39,8.60
2013,04,25,04,40,8.60
2013,04,25,04,41,8.60
2013,04,25,04,42,8.60
2013,04,25,04,43,8.60
2013,04,25,04,44,8.60
2013,04,25,04,45,8.60
2013,04,25,04,46,8.60
2013,04,25,04,47,8.70
2013,04,25,04,48,8.70
2013,04,25,04,49,8.70
2013,04,25,04,50,8.70
2013,04,25,04,51,8.70
2013,04,25,04,52,8.70
2013,04,25,04,53,8.70
2013,04,25,04,54,8.70
2013,04,25,04,55,8.70
2013,04,25,04,56,8.70
2013,04,25,04,57,8.70
2013,04,25,04,58,8.70
2013,04,25,04,59,8.70
2013,04,25,05,00,8.80
2013,04,25,05,01,8.80
2013,04,25,05,02,8.80
2013,04,25,05,03,8.80
2013,04,25,05,04,8.80
2013,04,25,05,05,8.80
2013,04,25,05,06,8.80
2013,04,25,05,07,8.80
2013,04,25,05,08,8.80
2013,04,25,05,09,8.80
2013,04,25,05,10,8.80
2013,04,25,05,11,8.80
2013,04,25,05,12,8.80
2013,04,25,05,13,8.80
2013,04,25,05,14,8.80
2013,04,25,05,15,8.80
2013,04,25,05,16,8.80
2013,04,25,05,17,8.80
2013,04,25,05,18,8.80
2013,04,25,05,19,8.80
2013,04,25,05,20,8.70
2013,04,25,05,21,8.70
2013,04,25,05,22,8.70
2013,04,25,05,23,8.70
2013,04,25,05,24,8.70
2013,04,25,05,25,8.70
2013,04,25,05,26,8.70
2013,04,25,05,27,8.60
2013,04,25,05,28,8.60
2013,04,25,05,29,8.60
2013,04,25,05,30,8.50
2013,04,25,05,31,8.50
2013,04,25,05,32,8.40
2013,04,25,05,33,8.40
2013,04,25,05,34,8.40
2013,04,25,05,35,8.40
2013,04,25,05,36,8.40
2013,04,25,05,37,8.40
2013,04,25,05,38,8.40
2013,04,25,05,39,8.40
2013,04,25,05,40,8.40
2013,04,25,05,41,8.40
2013,04,25,05,42,8.40
2013,04,25,05,43,8.40
2013,04,25,05,44,8.40
2013,04,25,05,45,8.40
2013,04,25,05,46,8.40
2013,04,25,05,47,8.40
2013,04,25,05,48,8.40
2013,04,25,05,49,8.40
2013,04,25,05,50,8.40
2013,04,25,05,51,8.40
2013,04,25,05,52,8.40
2013,04,25,05,53,8.40
2013,04,25,05,54,8.40
2013,04,25,05,55,8.40
2013,04,25,05,56,8.40
2013,04,25,05,57,8.40
2013,04,25,05,58,8.40
2013,04,25,05,59,8.40
2013,04,25,06,00,8.40
2013,04,25,06,01,8.40
2013,04,25,06,02,8.40
2013,04,25,06,03,8.40
2013,04,25,06,04,8.40
2013,04,25,06,05,8.40
2013,04,25,06,06,8.40
2013,04,25,06,07,8.40
2013,04,25,06,08,8.40
2013,04,25,06,09,8.40
2013,04,25,06,10,8.30
2013,04,25,06,11,8.30
2013,04,25,06,12,8.30
2013,04,25,06,13,8.30
2013,04,25,06,14,8.30
2013,04,25,06,15,8.30
2013,04,25,06,16,8.30
2013,04,25,06,17,8.30
2013,04,25,06,18,8.30
2013,04,25,06,19,8.30
2013,04,25,06,20,8.20
2013,04,25,06,21,8.20
2013,04,25,06,22,8.20
2013,04,25,06,23,8.20
2013,04,25,06,24,8.20
2013,04,25,06,25,8.20
2013,04,25,06,26,8.20
2013,04,25,06,27,8.10
2013,04,25,06,28,8.10
2013,04,25,06,29,8.10
2013,04,25,06,30,8.10
2013,04,25,06,31,8.10
2013,04,25,06,32,8.10
2013,04,25,06,33,8.10
2013,04,25,06,34,8.10
2013,04,25,06,35,8.10
2013,04,25,06,36,8.20
2013,04,25,06,37,8.20
2013,04,25,06,38,8.20
2013,04,25,06,39,8.20
2013,04,25,06,40,8.20
2013,04,25,06,41,8.20
2013,04,25,06,42,8.20
2013,04,25,06,43,8.20
2013,04,25,06,44,8.20
2013,04,25,06,45,8.30
2013,04,25,06,46,8.30
2013,04,25,06,47,8.30
2013,04,25,06,48,8.30
2013,04,25,06,49,8.30
2013,04,25,06,50,8.30
2013,04,25,06,51,8.40
2013,04,25,06,52,8.40
2013,04,25,06,53,8.40
2013,04,25,06,54,8.50
2013,04,25,06,55,8.50
2013,04,25,06,56,8.50
2013,04,25,06,57,8.60
2013,04,25,06,58,8.60
2013,04,25,06,59,8.60
2013,04,25,07,00,8.60
2013,04,25,07,01,8.60
2013,04,25,07,02,8.70
2013,04,25,07,03,8.70
2013,04,25,07,04,8.70
2013,04,25,07,05,8.80
2013,04,25,07,06,8.80
2013,04,25,07,07,8.80
2013,04,25,07,08,8.90
2013,04,25,07,09,8.90
2013,04,25,07,10,8.90
2013,04,25,07,11,9.00
2013,04,25,07,12,9.10
2013,04,25,07,13,9.10
2013,04,25,07,14,9.20
2013,04,25,07,15,9.20
2013,04,25,07,16,9.30
2013,04,25,07,17,9.40
2013,04,25,07,18,9.50
2013,04,25,07,19,9.60
2013,04,25,07,20,9.60
2013,04,25,07,21,9.60
2013,04,25,07,22,9.70
2013,04,25,07,23,9.70
2013,04,25,07,24,9.80
2013,04,25,07,25,9.80
2013,04,25,07,26,9.80
2013,04,25,07,27,9.90
2013,04,25,07,28,9.90
2013,04,25,07,29,10.00
2013,04,25,07,30,10.10
2013,04,25,07,31,10.10
2013,04,25,07,32,10.20
2013,04,25,07,33,10.20
2013,04,25,07,34,10.30
2013,04,25,07,35,10.30
2013,04,25,07,36,10.40
2013,04,25,07,37,10.50
2013,04,25,07,38,10.60
2013,04,25,07,39,10.70
2013,04,25,07,40,10.70
2013,04,25,07,41,10.80
2013,04,25,07,42,10.90
2013,04,25,07,43,11.00
2013,04,25,07,44,11.10
2013,04,25,07,45,11.10
2013,04,25,07,46,11.20
2013,04,25,07,47,11.20
2013,04,25,07,48,11.30
2013,04,25,07,49,11.30
2013,04,25,07,50,11.40
2013,04,25,07,51,11.40
2013,04,25,07,52,11.50
2013,04,25,07,53,11.60
2013,04,25,07,54,11.60
2013,04,25,07,55,11.60
2013,04,25,07,56,11.70
2013,04,25,07,57,11.70
2013,04,25,07,58,11.80
2013,04,25,07,59,11.80
2013,04,25,08,00,11.80
2013,04,25,08,01,11.90
2013,04,25,08,02,11.90
2013,04,25,08,03,11.90
2013,04,25,08,04,11.90
2013,04,25,08,05,12.00
2013,04,25,08,06,12.00
2013,04,25,08,07,12.00
2013,04,25,08,08,12.00
2013,04,25,08,09,12.00
2013,04,25,08,10,12.10
2013,04,25,08,11,12.10
2013,04,25,08,12,12.10
2013,04,25,08,13,12.10
2013,04,25,08,14,12.10
2013,04,25,08,15,12.10
2013,04,25,08,16,12.10
2013,04,25,08,17,12.10
2013,04,25,08,18,12.20
2013,04,25,08,19,12.20
2013,04,25,08,20,12.20
2013,04,25,08,21,12.20
2013,04,25,08,22,12.20
2013,04,25,08,23,12.20
2013,04,25,08,24,12.20
2013,04,25,08,25,12.20
2013,04,25,08,26,12.20
2013,04,25,08,27,12.20
2013,04,25,08,28,12.20
2013,04,25,08,29,12.30
2013,04,25,08,30,12.30
2013,04,25,08,31,12.30
2013,04,25,08,32,12.20
2013,04,25,08,33,12.20
2013,04,25,08,34,12.20
2013,04,25,08,35,12.20
2013,04,25,08,36,12.20
2013,04,25,08,37,12.20
2013,04,25,08,38,12.20
2013,04,25,08,39,12.20
2013,04,25,08,40,12.20
2013,04,25,08,41,12.20
2013,04,25,08,42,12.20
2013,04,25,08,43,12.20
2013,04,25,08,44,12.20
2013,04,25,08,45,12.20
2013,04,25,08,46,12.20
2013,04,25,08,47,12.20
2013,04,25,08,48,12.20
2013,04,25,08,49,12.20
2013,04,25,08,50,12.20
2013,04,25,08,51,12.20
2013,04,25,08,52,12.30
2013,04,25,08,53,12.30
2013,04,25,08,54,12.30
2013,04,25,08,55,12.30
2013,04,25,08,56,12.30
2013,04,25,08,57,12.30
2013,04,25,08,58,12.30
2013,04,25,08,59,12.30
2013,04,25,09,00,12.30
2013,04,25,09,01,12.40
2013,04,25,09,02,12.40
2013,04,25,09,03,12.40
2013,04,25,09,04,12.40
2013,04,25,09,05,12.50
2013,04,25,09,06,12.50
2013,04,25,09,07,12.50
2013,04,25,09,08,12.60
2013,04,25,09,09,12.60
2013,04,25,09,10,12.60
2013,04,25,09,11,12.60
2013,04,25,09,12,12.60
2013,04,25,09,13,12.60
2013,04,25,09,14,12.70
2013,04,25,09,15,12.70
2013,04,25,09,16,12.70
2013,04,25,09,17,12.70
2013,04,25,09,18,12.70
2013,04,25,09,19,12.70
2013,04,25,09,20,12.70
2013,04,25,09,21,12.70
2013,04,25,09,22,12.70
2013,04,25,09,23,12.80
2013,04,25,09,24,12.80
2013,04,25,09,25,12.80
2013,04,25,09,26,12.80
2013,04,25,09,27,12.90
2013,04,25,09,28,12.90
2013,04,25,09,29,12.90
2013,04,25,09,30,12.90
2013,04,25,09,31,13.00
2013,04,25,09,32,13.00
2013,04,25,09,33,13.00
2013,04,25,09,34,13.00
2013,04,25,09,35,13.00
2013,04,25,09,36,13.00
2013,04,25,09,37,13.10
2013,04,25,09,38,13.10
2013,04,25,09,39,13.10
2013,04,25,09,40,13.10
2013,04,25,09,41,13.20
2013,04,25,09,42,13.20
2013,04,25,09,43,13.20
2013,04,25,09,44,13.20
2013,04,25,09,45,13.20
2013,04,25,09,46,13.20
2013,04,25,09,47,13.30
2013,04,25,09,48,13.30
2013,04,25,09,49,13.30
2013,04,25,09,50,13.30
2013,04,25,09,51,13.30
2013,04,25,09,52,13.40
2013,04,25,09,53,13.40
2013,04,25,09,54,13.40
2013,04,25,09,55,13.50
2013,04,25,09,56,13.50
2013,04,25,09,57,13.60
2013,04,25,09,58,13.60
2013,04,25,09,59,13.60
2013,04,25,10,00,13.60
2013,04,25,10,01,13.60
2013,04,25,10,02,13.60
2013,04,25,10,03,13.60
2013,04,25,10,04,13.60
2013,04,25,10,05,13.60
2013,04,25,10,06,13.60
2013,04,25,10,07,13.60
2013,04,25,10,08,13.60
2013,04,25,10,09,13.60
2013,04,25,10,10,13.70
2013,04,25,10,11,13.70
2013,04,25,10,12,13.70
2013,04,25,10,13,13.80
2013,04,25,10,14,13.80
2013,04,25,10,15,13.80
2013,04,25,10,16,13.90
2013,04,25,10,17,13.90
2013,04,25,10,18,13.90
2013,04,25,10,19,14.00
2013,04,25,10,20,14.00
2013,04,25,10,21,14.10
2013,04,25,10,22,14.10
2013,04,25,10,23,14.20
2013,04,25,10,24,14.20
2013,04,25,10,25,14.30
2013,04,25,10,26,14.30
2013,04,25,10,27,14.30
2013,04,25,10,28,14.30
2013,04,25,10,29,14.30
2013,04,25,10,30,14.30
2013,04,25,10,31,14.30
2013,04,25,10,32,14.40
2013,04,25,10,33,14.40
2013,04,25,10,34,14.40
2013,04,25,10,35,14.40
2013,04,25,10,36,14.50
2013,04,25,10,37,14.60
2013,04,25,10,38,14.60
2013,04,25,10,39,14.60
2013,04,25,10,40,14.70
2013,04,25,10,41,14.80
2013,04,25,10,42,14.90
2013,04,25,10,43,15.00
2013,04,25,10,44,15.00
2013,04,25,10,45,15.00
2013,04,25,10,46,15.00
2013,04,25,10,47,15.10
2013,04,25,10,48,15.20
2013,04,25,10,49,15.10
2013,04,25,10,50,15.20
2013,04,25,10,51,15.20
2013,04,25,10,52,15.30
2013,04,25,10,53,15.30
2013,04,25,10,54,15.40
2013,04,25,10,55,15.50
2013,04,25,10,56,15.60
2013,04,25,10,57,15.60
2013,04,25,10,58,15.60
2013,04,25,10,59,15.60
2013,04,25,11,00,15.60
2013,04,25,11,01,15.50
2013,04,25,11,02,15.40
2013,04,25,11,03,15.30
2013,04,25,11,04,15.30
2013,04,25,11,05,15.20
2013,04,25,11,06,15.20
2013,04,25,11,07,15.20
2013,04,25,11,08,15.20
2013,04,25,11,09,15.20
2013,04,25,11,10,15.20
2013,04,25,11,11,15.10
2013,04,25,11,12,15.10
2013,04,25,11,13,15.10
2013,04,25,11,14,15.10
2013,04,25,11,15,15.00
2013,04,25,11,16,15.00
2013,04,25,11,17,15.00
2013,04,25,11,18,15.00
2013,04,25,11,19,15.00
2013,04,25,11,20,15.00
2013,04,25,11,21,15.00
2013,04,25,11,22,15.00
2013,04,25,11,23,14.80
2013,04,25,11,24,14.80
2013,04,25,11,25,14.70
2013,04,25,11,26,14.70
2013,04,25,11,27,14.70
2013,04,25,11,28,14.60
2013,04,25,11,29,14.70
2013,04,25,11,30,14.70
2013,04,25,11,31,14.70
2013,04,25,11,32,14.70
2013,04,25,11,33,14.80
2013,04,25,11,34,14.90
2013,04,25,11,35,15.00
2013,04,25,11,36,15.00
2013,04,25,11,37,15.10
2013,04,25,11,38,15.20
2013,04,25,11,39,15.20
2013,04,25,11,40,15.30
2013,04,25,11,41,15.30
2013,04,25,11,42,15.30
2013,04,25,11,43,15.30
2013,04,25,11,44,15.30
2013,04,25,11,45,15.20
2013,04,25,11,46,15.20
2013,04,25,11,47,15.20
2013,04,25,11,48,15.20
2013,04,25,11,49,15.20
2013,04,25,11,50,15.20
2013,04,25,11,51,15.20
2013,04,25,11,52,15.10
2013,04,25,11,53,15.00
2013,04,25,11,54,15.00
2013,04,25,11,55,15.00
2013,04,25,11,56,15.10
2013,04,25,11,57,15.20
2013,04,25,11,58,15.30
2013,04,25,11,59,15.40
2013,04,25,12,00,15.40
2013,04,25,12,01,15.50
2013,04,25,12,02,15.60
2013,04,25,12,03,15.60
2013,04,25,12,04,15.70
2013,04,25,12,05,15.70
2013,04,25,12,06,15.80
2013,04,25,12,07,15.90
2013,04,25,12,08,15.90
2013,04,25,12,09,16.00
2013,04,25,12,10,16.00
2013,04,25,12,11,16.10
2013,04,25,12,12,16.20
2013,04,25,12,13,16.30
2013,04,25,12,14,16.30
2013,04,25,12,15,16.40
2013,04,25,12,16,16.50
2013,04,25,12,17,16.60
2013,04,25,12,18,16.60
2013,04,25,12,19,16.60
2013,04,25,12,20,16.60
2013,04,25,12,21,16.50
2013,04,25,12,22,16.50
2013,04,25,12,23,16.50
2013,04,25,12,24,16.40
2013,04,25,12,25,16.40
2013,04,25,12,26,16.30
2013,04,25,12,27,16.30
2013,04,25,12,28,16.40
2013,04,25,12,29,16.50
2013,04,25,12,30,16.50
2013,04,25,12,31,16.60
2013,04,25,12,32,16.60
2013,04,25,12,33,16.60
2013,04,25,12,34,16.60
2013,04,25,12,35,16.60
2013,04,25,12,36,16.60
2013,04,25,12,37,16.60
2013,04,25,12,38,16.60
2013,04,25,12,39,16.70
2013,04,25,12,40,16.80
2013,04,25,12,41,16.80
2013,04,25,12,42,16.80
2013,04,25,12,43,16.80
2013,04,25,12,44,16.90
2013,04,25,12,45,17.00
2013,04,25,12,46,17.00
2013,04,25,12,47,17.10
2013,04,25,12,48,17.20
2013,04,25,12,49,17.20
2013,04,25,12,50,17.20
2013,04,25,12,51,17.20
2013,04,25,12,52,17.20
2013,04,25,12,53,17.10
2013,04,25,12,54,17.10
2013,04,25,12,55,17.10
2013,04,25,12,56,17.10
2013,04,25,12,57,17.10
2013,04,25,12,58,17.00
2013,04,25,12,59,16.90
2013,04,25,13,00,16.80
2013,04,25,13,01,16.80
2013,04,25,13,02,16.70
2013,04,25,13,03,16.60
2013,04,25,13,04,16.60
2013,04,25,13,05,16.60
2013,04,25,13,06,16.60
2013,04,25,13,07,16.60
2013,04,25,13,08,16.70
2013,04,25,13,09,16.70
2013,04,25,13,10,16.80
2013,04,25,13,11,16.80
2013,04,25,13,12,16.80
2013,04,25,13,13,16.80
2013,04,25,13,14,16.80
2013,04,25,13,15,16.90
2013,04,25,13,16,17.00
2013,04,25,13,17,17.10
2013,04,25,13,18,17.10
2013,04,25,13,19,17.10
2013,04,25,13,20,17.20
2013,04,25,13,21,17.20
2013,04,25,13,22,17.30
2013,04,25,13,23,17.50
2013,04,25,13,24,17.60
2013,04,25,13,25,17.60
2013,04,25,13,26,17.70
2013,04,25,13,27,17.80
2013,04,25,13,28,17.80
2013,04,25,13,29,17.80
2013,04,25,13,30,17.80
2013,04,25,13,31,17.80
2013,04,25,13,32,17.90
2013,04,25,13,33,18.00
2013,04,25,13,34,18.00
2013,04,25,13,35,18.10
2013,04,25,13,36,18.10
2013,04,25,13,37,18.10
2013,04,25,13,38,18.20
2013,04,25,13,39,18.30
2013,04,25,13,40,18.40
2013,04,25,13,41,18.40
2013,04,25,13,42,18.40
2013,04,25,13,43,18.30
2013,04,25,13,44,18.20
2013,04,25,13,45,18.10
2013,04,25,13,46,18.00
2013,04,25,13,47,17.90
2013,04,25,13,48,17.80
2013,04,25,13,49,17.80
2013,04,25,13,50,17.80
2013,04,25,13,51,17.80
2013,04,25,13,52,17.80
2013,04,25,13,53,17.70
2013,04,25,13,54,17.70
2013,04,25,13,55,17.60
2013,04,25,13,56,17.50
2013,04,25,13,57,17.40
2013,04,25,13,58,17.30
2013,04,25,13,59,17.30
2013,04,25,14,00,17.40
2013,04,25,14,01,17.40
2013,04,25,14,02,17.50
2013,04,25,14,03,17.50
2013,04,25,14,04,17.50
2013,04,25,14,05,17.50
2013,04,25,14,06,17.60
2013,04,25,14,07,17.70
2013,04,25,14,08,17.70
2013,04,25,14,09,17.80
2013,04,25,14,10,17.90
2013,04,25,14,11,17.90
2013,04,25,14,12,18.00
2013,04,25,14,13,18.10
2013,04,25,14,14,18.10
2013,04,25,14,15,18.20
2013,04,25,14,16,18.20
2013,04,25,14,17,18.10
2013,04,25,14,18,18.10
2013,04,25,14,19,18.10
2013,04,25,14,20,18.20
2013,04,25,14,21,18.20
2013,04,25,14,22,18.30
2013,04,25,14,23,18.40
2013,04,25,14,24,18.40
2013,04,25,14,25,18.40
2013,04,25,14,26,18.40
2013,04,25,14,27,18.40
2013,04,25,14,28,18.30
2013,04,25,14,29,18.20
2013,04,25,14,30,18.10
2013,04,25,14,31,18.10
2013,04,25,14,32,18.10
2013,04,25,14,33,18.10
2013,04,25,14,34,18.10
2013,04,25,14,35,18.10
2013,04,25,14,36,18.10
2013,04,25,14,37,18.20
2013,04,25,14,38,18.20
2013,04,25,14,39,18.30
2013,04,25,14,40,18.50
2013,04,25,14,41,18.60
2013,04,25,14,42,18.70
2013,04,25,14,43,18.80
2013,04,25,14,44,18.80
2013,04,25,14,45,18.90
2013,04,25,14,46,18.90
2013,04,25,14,47,18.90
2013,04,25,14,48,18.90
2013,04,25,14,49,19.00
2013,04,25,14,50,19.10
2013,04,25,14,51,19.20
2013,04,25,14,52,19.30
2013,04,25,14,53,19.30
2013,04,25,14,54,19.20
2013,04,25,14,55,19.20
2013,04,25,14,56,19.20
2013,04,25,14,57,19.20
2013,04,25,14,58,19.20
2013,04,25,14,59,19.10
2013,04,25,15,00,19.10
2013,04,25,15,01,19.10
2013,04,25,15,02,19.00
2013,04,25,15,03,18.90
2013,04,25,15,04,18.70
2013,04,25,15,05,18.60
2013,04,25,15,06,18.50
2013,04,25,15,07,18.40
2013,04,25,15,08,18.30
2013,04,25,15,09,18.20
2013,04,25,15,10,18.20
2013,04,25,15,11,18.30
2013,04,25,15,12,18.30
2013,04,25,15,13,18.30
2013,04,25,15,14,18.40
2013,04,25,15,15,18.40
2013,04,25,15,16,18.50
2013,04,25,15,17,18.60
2013,04,25,15,18,18.70
2013,04,25,15,19,18.80
2013,04,25,15,20,18.70
2013,04,25,15,21,18.60
2013,04,25,15,22,18.40
2013,04,25,15,23,18.30
2013,04,25,15,24,18.10
2013,04,25,15,25,18.00
2013,04,25,15,26,17.80
2013,04,25,15,27,17.70
2013,04,25,15,28,17.60
2013,04,25,15,29,17.50
2013,04,25,15,30,17.50
2013,04,25,15,31,17.60
2013,04,25,15,32,17.70
2013,04,25,15,33,17.70
2013,04,25,15,34,17.60
2013,04,25,15,35,17.60
2013,04,25,15,36,17.70
2013,04,25,15,37,17.70
2013,04,25,15,38,17.70
2013,04,25,15,39,17.70
2013,04,25,15,40,17.70
2013,04,25,15,41,17.70
2013,04,25,15,42,17.70
2013,04,25,15,43,17.70
2013,04,25,15,44,17.70
2013,04,25,15,45,17.80
2013,04,25,15,46,17.80
2013,04,25,15,47,17.80
2013,04,25,15,48,17.80
2013,04,25,15,49,17.70
2013,04,25,15,50,17.70
2013,04,25,15,51,17.70
2013,04,25,15,52,17.80
2013,04,25,15,53,17.80
2013,04,25,15,54,17.90
2013,04,25,15,55,17.90
2013,04,25,15,56,17.90
2013,04,25,15,57,17.90
2013,04,25,15,58,17.90
2013,04,25,15,59,18.00
2013,04,25,16,00,18.00
2013,04,25,16,01,18.10
2013,04,25,16,02,18.20
2013,04,25,16,03,18.10
2013,04,25,16,04,18.00
2013,04,25,16,05,17.80
2013,04,25,16,06,17.80
2013,04,25,16,07,17.80
2013,04,25,16,08,17.80
2013,04,25,16,09,17.80
2013,04,25,16,10,17.70
2013,04,25,16,11,17.70
2013,04,25,16,12,17.60
2013,04,25,16,13,17.60
2013,04,25,16,14,17.60
2013,04,25,16,15,17.50
2013,04,25,16,16,17.50
2013,04,25,16,17,17.60
2013,04,25,16,18,17.60
2013,04,25,16,19,17.60
2013,04,25,16,20,17.60
2013,04,25,16,21,17.60
2013,04,25,16,22,17.60
2013,04,25,16,23,17.60
2013,04,25,16,24,17.60
2013,04,25,16,25,17.60
2013,04,25,16,26,17.50
2013,04,25,16,27,17.50
2013,04,25,16,28,17.50
2013,04,25,16,29,17.50
2013,04,25,16,30,17.50
2013,04,25,16,31,17.40
2013,04,25,16,32,17.40
2013,04,25,16,33,17.50
2013,04,25,16,34,17.60
2013,04,25,16,35,17.70
2013,04,25,16,36,17.70
2013,04,25,16,37,17.80
2013,04,25,16,38,17.90
2013,04,25,16,39,18.00
2013,04,25,16,40,18.00
2013,04,25,16,41,18.00
2013,04,25,16,42,17.90
2013,04,25,16,43,17.90
2013,04,25,16,44,17.80
2013,04,25,16,45,17.80
2013,04,25,16,46,17.80
2013,04,25,16,47,17.70
2013,04,25,16,48,17.70
2013,04,25,16,49,17.70
2013,04,25,16,50,17.60
2013,04,25,16,51,17.60
2013,04,25,16,52,17.50
2013,04,25,16,53,17.40
2013,04,25,16,54,17.30
2013,04,25,16,55,17.20
2013,04,25,16,56,17.10
2013,04,25,16,57,17.00
2013,04,25,16,58,17.00
2013,04,25,16,59,16.90
2013,04,25,17,00,16.90
2013,04,25,17,01,16.90
2013,04,25,17,02,16.90
2013,04,25,17,03,16.90
2013,04,25,17,04,16.90
2013,04,25,17,05,16.90
2013,04,25,17,06,16.90
2013,04,25,17,07,16.90
2013,04,25,17,08,16.90
2013,04,25,17,09,16.90
2013,04,25,17,10,16.90
2013,04,25,17,11,16.80
2013,04,25,17,12,16.80
2013,04,25,17,13,16.80
2013,04,25,17,14,16.90
2013,04,25,17,15,16.90
2013,04,25,17,16,16.90
2013,04,25,17,17,16.90
2013,04,25,17,18,16.90
2013,04,25,17,19,16.90
2013,04,25,17,20,17.00
2013,04,25,17,21,17.00
2013,04,25,17,22,17.00
2013,04,25,17,23,17.00
2013,04,25,17,24,17.00
2013,04,25,17,25,17.10
2013,04,25,17,26,17.10
2013,04,25,17,27,17.10
2013,04,25,17,28,17.00
2013,04,25,17,29,16.90
2013,04,25,17,30,16.90
2013,04,25,17,31,16.80
2013,04,25,17,32,16.80
2013,04,25,17,33,16.80
2013,04,25,17,34,16.80
2013,04,25,17,35,16.80
2013,04,25,17,36,16.70
2013,04,25,17,37,16.70
2013,04,25,17,38,16.70
2013,04,25,17,39,16.70
2013,04,25,17,40,16.60